Location: Penton Mewsey
(51.2167°N, 1.5167°W)
Time: 11:54:35
(UTC+00:00)

STARLINK-1202 - Pass Details

Date: 30 March 2020
Orbit: 549 x 550 km, 53.0° (Epoch: 28 May)

Event Time Altitude Azimuth Distance (km) Brightness Sun altitude
Rises 19:47:35 0° 237° (WSW) 2,713 7.7 -11.6°
Reaches altitude 10° 19:49:50 10° 234° (SW) 1,822 6.7 -11.9°
Maximum altitude 19:53:55 62° 154° (SSE) 623 3.6 -12.5°
Enters shadow 19:57:23 14° 75° (ENE) 1,578 5.5 -13.0°
